User: anonymous   Login
Location: Unspecified
(0.0000°N, 0.0000°E)
Time: 23:24:58
(UTC+00:00)
Language:

UHF F/O F4 - Orbit

View from above orbital plane
View from above orbital plane
View from above satellite
View from above satellite

Ground track
Ground track

The orbit data is extracted from the following two-line orbital elements,

1 23467U 95003A   16039.97983677 0.00000000  00000-0  00000-0 0    07
2 23467   9.1530  31.2839 0006000 270.7299  89.3151  1.00270000    07
Epoch (UTC): 08 February 2016 23:30:57
Eccentricity: 0.0006000
inclination: 9.1530°
perigee height: 35761 km
apogee height: 35812 km
right ascension of ascending node: 31.2839°
argument of perigee: 270.7299°
revolutions per day: 1.00270000
mean anomaly at epoch: 89.3151°
orbit number at epoch: 0

The dashed part of the orbit path shows where the satellite is in the earth's shadow,  

DLR